Weather in Kurdiumivka

Ukraine / Donetsk Region     48°28′05″N   37°57′36″E
temp.,
°C
wind,
m/s
gust,
m/s
humid.,
%
clouds,
%
prec.,
mm/h
press.,
hPa
HPBL,
m
24 may, tue
tue2400:00+8n015982 0.0 100910
03:00+9wsw1158100 0.0 100911
06:00+10wnw126697 0.0 101086
09:00+13nnw345763 0.0 1011853
12:00+16nw444210 0.0 10112188
15:00+17nw5440100 0.0 10112325
18:00+15nw455235 0.1 10121502
21:00+10w227013 0.2 101417
25 may, wed
wed2500:00+9wsw227368 0.0 101514
03:00+8w34745 0.0 101676
06:00+9wsw367822 0.0 1016171
09:00+14w46618 0.0 1017740
12:00+18wnw664621 0.1 10172247
15:00+19wnw464187 0.1 10172537
18:00+15w236268 0.0 101893
21:00+12wsw11704 0.0 101813
26 may, thu
thu2600:00+12sw226571 0.0 101921
03:00+10w2275100 0.0 102012
06:00+11sw2370100 0.0 101970
09:00+17sw465387 0.0 1018541
12:00+20sw674142 0.0 10172208
15:00+20sw71048100 0.0 10162285
18:00+12wsw71589100 1.9 1016845
21:00+13sw7148399 1.9 1016672
27 may, fri
fri2700:00+12wsw5108820 0.0 1016310
03:00+10sw379551 0.0 1016143
06:00+12wsw5129229 0.2 1015337
09:00+18wsw696551 0.2 1015784
12:00+21w8104854 0.0 10142158
15:00+19w6961100 0.0 10141304
18:00+19w596264 0.0 1014756
21:00+15wsw47780 0.0 1015110
28 may, sat
sat2800:00+14ssw368296 0.0 101487
03:00+16ssw51177100 0.0 1012298
06:00+16sw61374100 0.0 1012429
09:00+18sw7146458 0.0 1012761
12:00+23sw9134736 0.0 10111932
15:00+23wsw8115038 0.0 10101744
18:00+16nnw4789100 0.4 1012254
21:00+15wsw119491 0.8 101436